Location: Cortina d'Ampezzo
(46.5405°N, 12.1357°E)
Time: 15:39:16
(UTC+01:00)

ARIANE 6 FM1 Upper Stage - Visible Passes

Search period start: 20 January 2026 00:00
Search period end: 30 January 2026 00:00
Orbit: 522 x 610 km, 62.0° (Epoch: 20 January)

Date Brightness Start Highest point End Pass type
(mag) Time Alt. Az. Time Alt. Az. Time Alt. Az.
20 Jan 4.6 18:35:32 10° SSE 18:36:46 14° SE 18:36:46 14° SE visible
20 Jan 5.6 20:12:34 10° SW 20:12:51 12° SW 20:12:51 12° SW visible
21 Jan 3.9 18:34:49 10° S 18:37:44 22° SE 18:37:44 22° SE visible
21 Jan 5.3 20:12:54 10° WSW 20:13:48 16° WSW 20:13:48 16° WSW visible
22 Jan 3.3 18:34:25 10° S 18:38:05 32° ESE 18:38:37 31° ESE visible
22 Jan 5.2 20:13:21 10° WSW 20:14:40 18° W 20:14:40 18° W visible
23 Jan 2.9 18:34:14 10° SSW 18:38:09 47° SE 18:39:23 35° ENE visible
23 Jan 5.2 20:13:53 10° W 20:15:26 19° WNW 20:15:26 19° WNW visible
24 Jan 2.5 18:34:12 10° SSW 18:38:15 70° SE 18:40:04 31° NE visible
24 Jan 5.3 20:14:31 10° W 20:16:07 17° WNW 20:16:07 17° WNW visible
25 Jan 2.6 18:34:18 10° SW 18:38:23 81° NW 18:40:39 25° NE visible
25 Jan 5.3 20:15:14 10° WNW 20:16:42 15° NW 20:16:42 15° NW visible
26 Jan 3.1 18:34:32 10° SW 18:38:32 57° NW 18:41:10 20° NNE visible
26 Jan 5.5 20:16:04 10° WNW 20:17:12 13° NW 20:17:12 13° NW visible
27 Jan 3.6 18:34:51 10° WSW 18:38:42 41° NW 18:41:35 16° NNE visible
27 Jan 5.5 20:16:59 10° NW 20:17:37 11° NW 20:17:37 11° NW visible
28 Jan 4.1 18:35:17 10° WSW 18:38:55 31° NW 18:41:58 13° NNE visible
29 Jan 4.4 18:35:48 10° W 18:39:09 24° NW 18:42:16 11° NNE visible
